When you browse on this site, cookies collect data to enhance your experience and personalize the content and advertising you see.
Visit our Privacy Policy to learn more. By continuing to use the site, you agree to this use of cookies and data.
  • Em Portugal
  • Lista de países
  • Para 7 dias
  • Temperatura da água
  • Mapa do tempo
  • Widgets de tempo
  • user-avatar
    Iniciar Sessão

    Previsão horária em Sidnei

    Hoje, 30 Maio, Sábado

    Tempo Temperatura Precipitação Vento Pressão Humidade
    00:00 +14°C° 0 mm 1 m/s 769 mmHg 88%
    01:00 +14°C° 0 mm 1 m/s 769 mmHg 88%
    02:00 +14°C° 0 mm 1 m/s 769 mmHg 88%
    03:00 +14°C° 0 mm 1 m/s 769 mmHg 88%
    04:00 +14°C° 0 mm 1 m/s 769 mmHg 88%
    05:00 +14°C° 0 mm 1 m/s 769 mmHg 88%
    06:00 +14°C° 0 mm 1 m/s 770 mmHg 88%
    07:00 +13°C° 0 mm 1 m/s 770 mmHg 88%
    08:00 +15°C° 0 mm 1 m/s 770 mmHg 81%
    09:00 +16°C° 0 mm 1 m/s 769 mmHg 74%
    10:00 +20°C° 0 mm 1 m/s 769 mmHg 66%
    11:00 +20°C° 0 mm 1 m/s 769 mmHg 60%
    12:00 +20°C° 0 mm 2 m/s 768 mmHg 55%
    13:00 +21°C° 0 mm 2 m/s 767 mmHg 49%
    14:00 +20°C° 0 mm 3 m/s 767 mmHg 54%
    15:00 +20°C° 0 mm 4 m/s 767 mmHg 59%
    16:00 +19°C° 0 mm 5 m/s 766 mmHg 63%
    17:00 +17°C° 0 mm 5 m/s 766 mmHg 69%
    18:00 +17°C° 0 mm 4 m/s 766 mmHg 74%
    19:00 +15°C° 0 mm 4 m/s 766 mmHg 79%
    20:00 +15°C° 0 mm 4 m/s 766 mmHg 82%
    21:00 +14°C° 0 mm 4 m/s 766 mmHg 86%
    22:00 +14°C° 0 mm 4 m/s 766 mmHg 89%
    23:00 +13°C° 0 mm 4 m/s 765 mmHg 90%

    Amanhã, 31 Maio, Domingo

    Tempo Temperatura Precipitação Vento Pressão Humidade
    00:00 +13°C° 0 mm 4 m/s 765 mmHg 91%
    01:00 +13°C° 0 mm 4 m/s 764 mmHg 92%
    02:00 +12°C° 0 mm 4 m/s 764 mmHg 92%
    03:00 +12°C° 0 mm 3 m/s 764 mmHg 92%
    04:00 +12°C° 0 mm 3 m/s 764 mmHg 92%
    05:00 +12°C° 0 mm 3 m/s 764 mmHg 90%
    06:00 +12°C° 0 mm 3 m/s 763 mmHg 87%
    07:00 +11°C° 0 mm 3 m/s 763 mmHg 85%
    08:00 +13°C° 0 mm 3 m/s 763 mmHg 78%
    09:00 +14°C° 0 mm 4 m/s 763 mmHg 71%
    10:00 +17°C° 0 mm 4 m/s 763 mmHg 64%
    11:00 +19°C° 0 mm 4 m/s 763 mmHg 57%
    12:00 +20°C° 0 mm 4 m/s 762 mmHg 49%
    13:00 +22°C° 0 mm 4 m/s 761 mmHg 41%
    14:00 +22°C° 0 mm 3 m/s 761 mmHg 41%
    15:00 +22°C° 0 mm 3 m/s 761 mmHg 41%
    16:00 +21°C° 0 mm 3 m/s 761 mmHg 41%
    17:00 +20°C° 0 mm 3 m/s 761 mmHg 46%
    18:00 +18°C° 0 mm 4 m/s 761 mmHg 51%
    19:00 +17°C° 0 mm 4 m/s 761 mmHg 55%
    20:00 +15°C° 0 mm 4 m/s 761 mmHg 57%
    21:00 +14°C° 0 mm 4 m/s 761 mmHg 59%
    22:00 +14°C° 0 mm 4 m/s 761 mmHg 61%
    23:00 +14°C° 0 mm 4 m/s 760 mmHg 63%

    Depois de amanhã, 1 Junho, Segunda-feira

    Tempo Temperatura Precipitação Vento Pressão Humidade
    00:00 +13°C° 0 mm 4 m/s 759 mmHg 64%
    01:00 +13°C° 0 mm 4 m/s 759 mmHg 66%
    02:00 +13°C° 0 mm 4 m/s 758 mmHg 68%
    03:00 +13°C° 0 mm 5 m/s 758 mmHg 69%
    04:00 +13°C° 0 mm 5 m/s 757 mmHg 70%
    05:00 +13°C° 0 mm 6 m/s 757 mmHg 71%
    06:00 +13°C° 0 mm 6 m/s 757 mmHg 71%
    07:00 +13°C° 0 mm 6 m/s 757 mmHg 71%
    08:00 +15°C° 0 mm 7 m/s 756 mmHg 64%
    09:00 +17°C° 0 mm 7 m/s 756 mmHg 56%
    10:00 +20°C° 0 mm 8 m/s 756 mmHg 48%
    11:00 +20°C° 0 mm 7 m/s 755 mmHg 47%
    12:00 +20°C° 0 mm 6 m/s 755 mmHg 45%
    13:00 +20°C° 0 mm 5 m/s 754 mmHg 44%
    14:00 +19°C° 0 mm 6 m/s 754 mmHg 45%
    15:00 +17°C° 0 mm 7 m/s 754 mmHg 47%
    16:00 +16°C° 0 mm 8 m/s 755 mmHg 48%
    17:00 +15°C° 0 mm 8 m/s 755 mmHg 50%
    18:00 +14°C° 0 mm 7 m/s 756 mmHg 52%
    19:00 +11°C° 0 mm 7 m/s 757 mmHg 53%
    20:00 +10°C° 0 mm 7 m/s 757 mmHg 55%
    21:00 +9°C° 0 mm 6 m/s 758 mmHg 56%
    22:00 +9°C° 0 mm 6 m/s 758 mmHg 57%
    23:00 +8°C° 0 mm 6 m/s 758 mmHg 58%

    2 Junho, Terça-feira

    Tempo Temperatura Precipitação Vento Pressão Humidade
    00:00 +8°C° 0 mm 6 m/s 757 mmHg 58%
    01:00 +8°C° 0 mm 6 m/s 757 mmHg 58%
    02:00 +8°C° 0 mm 7 m/s 757 mmHg 61%
    03:00 +7°C° 0 mm 8 m/s 757 mmHg 63%
    04:00 +8°C° 0 mm 9 m/s 757 mmHg 66%
    05:00 +9°C° 0 mm 8 m/s 757 mmHg 65%
    06:00 +9°C° 0 mm 8 m/s 757 mmHg 65%
    07:00 +9°C° 0 mm 8 m/s 757 mmHg 64%
    08:00 +10°C° 0 mm 8 m/s 758 mmHg 59%
    09:00 +12°C° 0 mm 9 m/s 758 mmHg 54%
    10:00 +15°C° 0 mm 9 m/s 759 mmHg 48%
    11:00 +16°C° 0 mm 8 m/s 759 mmHg 45%
    12:00 +17°C° 0 mm 8 m/s 759 mmHg 42%
    13:00 +18°C° 0 mm 7 m/s 759 mmHg 39%
    14:00 +17°C° 0 mm 7 m/s 760 mmHg 42%
    15:00 +16°C° 0 mm 7 m/s 760 mmHg 44%
    16:00 +15°C° 0 mm 8 m/s 761 mmHg 46%
    17:00 +13°C° 0 mm 8 m/s 761 mmHg 50%
    18:00 +12°C° 0 mm 8 m/s 762 mmHg 54%
    19:00 +10°C° 0 mm 8 m/s 763 mmHg 58%
    20:00 +10°C° 0 mm 7 m/s 763 mmHg 60%
    21:00 +10°C° 0 mm 7 m/s 764 mmHg 61%
    22:00 +10°C° 0 mm 6 m/s 764 mmHg 62%
    23:00 +9°C° 0 mm 6 m/s 764 mmHg 64%

    3 Junho, Quarta-feira

    Tempo Temperatura Precipitação Vento Pressão Humidade
    00:00 +9°C° 0 mm 6 m/s 764 mmHg 66%
    01:00 +9°C° 0 mm 6 m/s 764 mmHg 68%
    02:00 +9°C° 0 mm 6 m/s 764 mmHg 69%
    03:00 +9°C° 0 mm 6 m/s 764 mmHg 70%
    04:00 +8°C° 0 mm 5 m/s 764 mmHg 72%
    05:00 +8°C° 0 mm 5 m/s 765 mmHg 73%
    06:00 +8°C° 0 mm 4 m/s 766 mmHg 75%
    07:00 +7°C° 0 mm 4 m/s 766 mmHg 77%
    08:00 +10°C° 0 mm 4 m/s 767 mmHg 69%
    09:00 +12°C° 0 mm 3 m/s 767 mmHg 61%
    10:00 +14°C° 0 mm 3 m/s 768 mmHg 53%
    11:00 +15°C° 0 mm 4 m/s 768 mmHg 50%
    12:00 +17°C° 0 mm 4 m/s 768 mmHg 46%
    13:00 +17°C° 0 mm 5 m/s 767 mmHg 43%
    14:00 +16°C° 0 mm 5 m/s 768 mmHg 47%
    15:00 +16°C° 0 mm 5 m/s 768 mmHg 51%
    16:00 +15°C° 0 mm 6 m/s 768 mmHg 55%
    17:00 +14°C° 0 mm 5 m/s 769 mmHg 60%
    18:00 +13°C° 0 mm 5 m/s 769 mmHg 65%
    19:00 +12°C° 0 mm 4 m/s 770 mmHg 70%
    20:00 +11°C° 0 mm 4 m/s 770 mmHg 72%
    21:00 +11°C° 0 mm 4 m/s 771 mmHg 74%
    22:00 +10°C° 0 mm 4 m/s 771 mmHg 77%
    23:00 +10°C° 0 mm 4 m/s 771 mmHg 77%

    4 Junho, Quinta-feira

    Tempo Temperatura Precipitação Vento Pressão Humidade
    00:00 +8°C° 0 mm 4 m/s 771 mmHg 78%
    01:00 +8°C° 0 mm 4 m/s 771 mmHg 78%
    02:00 +8°C° 0 mm 4 m/s 771 mmHg 79%
    03:00 +8°C° 0 mm 5 m/s 771 mmHg 79%
    04:00 +7°C° 0 mm 5 m/s 771 mmHg 80%
    05:00 +7°C° 0 mm 5 m/s 772 mmHg 81%
    06:00 +7°C° 0 mm 5 m/s 772 mmHg 82%
    07:00 +7°C° 0 mm 4 m/s 773 mmHg 82%
    08:00 +10°C° 0 mm 4 m/s 773 mmHg 75%
    09:00 +11°C° 0 mm 4 m/s 773 mmHg 67%
    10:00 +13°C° 0 mm 4 m/s 773 mmHg 60%
    11:00 +14°C° 0 mm 4 m/s 773 mmHg 54%
    12:00 +15°C° 0 mm 4 m/s 772 mmHg 48%
    13:00 +17°C° 0 mm 3 m/s 772 mmHg 42%
    14:00 +17°C° 0 mm 3 m/s 772 mmHg 45%
    15:00 +17°C° 0 mm 3 m/s 772 mmHg 47%
    16:00 +16°C° 0 mm 3 m/s 772 mmHg 49%
    17:00 +14°C° 0 mm 3 m/s 772 mmHg 58%
    18:00 +14°C° 0 mm 2 m/s 773 mmHg 66%
    19:00 +12°C° 0 mm 2 m/s 773 mmHg 75%
    20:00 +12°C° 0 mm 2 m/s 773 mmHg 76%
    21:00 +10°C° 0 mm 2 m/s 773 mmHg 78%
    22:00 +11°C° 0 mm 1 m/s 773 mmHg 80%
    23:00 +9°C° 0 mm 2 m/s 773 mmHg 80%
    Mostrar mais